Home > Time Zones > World Clock > Weather > Peru > Lima > Past weeks

Flag for Peru Weather past 2 weeks in Lima, Lima, Peru

Now
72 °F

More clouds than sun.


Feels Like: 74 °F
Forecast: 65 / 75 °F
Wind: 7 mph from Southwest

Location: Lima-Callao / Aerop. Internacional Jorgechavez

Current Time: Dec 25, 2014 at 11:31:20 AM

Latest Report: Dec 25, 2014 at 11:00 AM


Visibility: N/A

Pressure: 29.92 "Hg

Humidity: 73%

Dew point: 63 °F

Location of LimaLocation

Historic Weather in Lima — Graph

°F

Lima temperature yesterday

Maximum temperature yesterday: 73 °F (at 3:00 PM)
Minimum temperature yesterday: 66 °F (at 2:00 AM)
Average temperature yesterday: 68 °F

Past Weeks' High & Low Weather Summary

 TemperatureHumidityPressure
High77 °F (Dec 10, 1:00 PM)94% (Dec 12, 3:00 AM)30.07 "Hg (Dec 12, 3:00 AM)
Low64 °F (Dec 14, 4:00 AM)57% (Dec 10, 12:00 PM)29.83 "Hg (Dec 23, 4:00 PM)
Average69 °F80%29.94 "Hg
* Reported Dec 10 10:00 AM — Dec 25 10:00 AM, Lima, Weather by CustomWeather, © 2014

Note: Actual official high and low records may vary slightly from our data, if they occured in-between our weather recording intervals... More about our weather records

Advertising

Lima weather history for previous 24 hours

 ConditionsComfort  
Time TempWeatherWind HumidityBarometerVisibility
10:00 AM
Dec 25
72 °FMore clouds than sun.3 mph73%29.95 "HgN/A
9:00 AM68 °FOvercast.3 mph83%29.95 "HgN/A
8:00 AM68 °FOvercast.3 mph83%29.92 "HgN/A
7:00 AM66 °FOvercast.5 mph88%29.89 "HgN/A
6:00 AM66 °FOvercast.5 mph88%29.89 "HgN/A
5:00 AM66 °FOvercast.6 mph83%29.86 "HgN/A
4:00 AM66 °FOvercast.8 mph83%29.86 "HgN/A
3:00 AM66 °FOvercast.8 mph83%29.86 "HgN/A
2:00 AM66 °FOvercast.9 mph83%29.89 "HgN/A
1:00 AM68 °FOvercast.12 mph78%29.89 "HgN/A
12:00 AM68 °FOvercast.12 mph83%29.92 "HgN/A
11:00 PM
Dec 24
68 °FOvercast.13 mph83%29.92 "HgN/A
10:00 PM68 °FOvercast.12 mph83%29.89 "HgN/A
9:00 PM68 °FPassing clouds.12 mph83%29.89 "HgN/A
8:00 PM68 °FClear.12 mph83%29.89 "Hg10 mi
7:00 PM68 °FPassing clouds.12 mph83%29.86 "HgN/A
6:00 PM68 °FPassing clouds.15 mph83%29.86 "HgN/A
5:00 PM70 °FScattered clouds.17 mph78%29.83 "HgN/A
4:00 PM72 °FScattered clouds.14 mph73%29.83 "HgN/A
3:00 PM73 °FPartly sunny.10 mph69%29.83 "HgN/A
2:00 PM72 °FOvercast.12 mph73%29.86 "HgN/A
1:00 PM70 °FMore clouds than sun.13 mph78%29.86 "HgN/A
12:00 PM70 °FMore clouds than sun.12 mph78%29.86 "HgN/A
11:00 AM70 °FMostly cloudy.9 mph78%29.89 "HgN/A
Weather by CustomWeather, © 2014

See weather overviewHow to use our weather pages